Header for Extended Forecast Station List Page

Search by: ID | Name | Date | Parm | Value | Avg | % Avg
Sort by: ID | Name | Date | Parm | Value | Avg | % Avg

Enter search or view all records.

Click on id for station plot
#IDNameDateParmValueAvg% Avg
0WGCM8MF FLATHEAD-NEAR WEST GLACIER10-21-2021DISCHARGE (KAF)5316332
1SATI1ST MARIES-NEAR SANTA10-21-2021DISCHARGE (KAF)153939
2COEI1COEUR D ALENE-COEUR D ALENE LAKE10-21-2021INFLOW (KAF)34776245
3NACW1NACHES-NEAR NACHES10-21-2021DISCHARGE (KAF)6614645
4SPOW1SPOKANE-AT SPOKANE10-21-2021DISCHARGE (KAF)44395946
5STRM8ST. REGIS-NEAR ST. REGIS10-21-2021DISCHARGE (KAF)173352
6MACI1BIG LOST-MACKAY RESERVOIR NEAR MACKAY10-21-2021INFLOW (KAF)214152
7LLKW1SPOKANE-AT LONGLAKE10-21-2021INFLOW (KAF)629115854
8DWRI1NF CLEARWATER-DWORSHAK DAM10-21-2021INFLOW (KAF)30655555
9ORFI1CLEARWATER-AT OROFINO10-21-2021DISCHARGE (KAF)39270156
10MAGI1BIG WOOD-MAGIC DAM10-21-2021INFLOW (KAF)122158
11BITM8BITTERROOT-NEAR MISSOULA10-21-2021DISCHARGE (KAF)12320759
12RILW1TIETON-RIMROCK LAKE NEAR RIMROCK10-21-2021INFLOW (KAF)427159
13HWRI1BIG LOST-AT HOWELL RANCH NEAR CHILLY10-21-2021DISCHARGE (KAF)122059
14HHWM8SF FLATHEAD-HUNGRY HORSE DAM10-21-2021INFLOW (KAF)14223161
15LUCI1BOISE-LUCKY PEAK DAM10-21-2021INFLOW (KAF)508261
16BERO3MALHEUR-AGENCY VALLEY DAM10-21-2021INFLOW (KAF)101662
17WSRI1WEISER-NEAR WEISER10-21-2021DISCHARGE (KAF)518063
18TNAW1TEANAWAY-BELOW FORKS10-21-2021DISCHARGE (KAF)264164
19SPDI1CLEARWATER-AT SPALDING10-21-2021DISCHARGE (KAF)838130564
20PRTI1PRIEST-NEAR PRIEST RIVER10-21-2021DISCHARGE (KAF)16524567
21HALI1BIG WOOD-AT HAILEY10-21-2021DISCHARGE (KAF)263867
22HOTI1BRUNEAU-NEAR HOT SPRINGS10-21-2021DISCHARGE (KAF)162468
23FCFM8NF FLATHEAD-NEAR COLUMBIA FALLS10-21-2021DISCHARGE (KAF)13118571
24SRGM8CLARK FORK-AT ST REGIS10-21-2021DISCHARGE (KAF)51170872
25ALFW1PEND OREILLE-ALBENI FALLS DAM10-21-2021INFLOW (KAF)2779383472
26SNAI1SNAKE-AT BLACKFOOT10-21-2021DISCHARGE (KAF)43961072
27KERM8FLATHEAD-SELI’Š KSANKA QLISPE’ DAM10-21-2021INFLOW (KAF)961132273
28CABI1CLARK FORK-CABINET GORGE DAM10-21-2021INFLOW (KAF)2516344073
29JLKW4SNAKE-JACKSON LAKE AT DAM10-21-2021INFLOW (KAF)8211273
30HEII1SNAKE-NEAR HEISE10-21-2021DISCHARGE (KAF)29540573
31SHYI1SNAKE-NEAR SHELLEY10-21-2021DISCHARGE (KAF)52170474
32DEDI1DEADWOOD-NEAR LOWMAN10-21-2021INFLOW (KAF)131774
33LEOI1KOOTENAI-AT LEONIA10-21-2021DISCHARGE (KAF)2000265675
34BELM8CLARK FORK-BELOW MISSOULA10-21-2021DISCHARGE (KAF)40353975
35NOXM8CLARK FORK-NOXON RAPIDS DAM10-21-2021INFLOW (KAF)2293306875
36SIFI1SNAKE-AB EAGLE ROCK NR IDAHO FALLS10-21-2021DISCHARGE (KAF)52168676
37BFTI1SNAKE-NEAR BLACKFOOT10-21-2021DISCHARGE (KAF)45859976
38WHBI1SALMON-AT WHITEBIRD10-21-2021DISCHARGE (KAF)780102776
39LGSW1SNAKE-LITTLE GOOSE DAM10-21-2021INFLOW (KAF)4462584976
40IHDW1SNAKE-ICE HARBOR DAM10-21-2021INFLOW (KAF)4514592376
41LAUW1KETTLE-AT LAURIER10-21-2021DISCHARGE (KAF)9312177
42PATW1METHOW-NEAR PATEROS10-21-2021DISCHARGE (KAF)8110477
43CLFW1NACHES-NEAR CLIFFDEL10-21-2021DISCHARGE (KAF)8811477
44IPDI1HENRYS FORK-ISLAND PARK DAM10-21-2021INFLOW (KAF)8210777
45OWYO3OWYHEE-OWYHEE DAM10-21-2021INFLOW (KAF)688877
46TRYO3GRANDE RONDE-TROY10-21-2021DISCHARGE (KAF)23029777
47LGDW1SNAKE-LOWER GRANITE DAM10-21-2021INFLOW (KAF)4462580777
48LMNW1SNAKE-LOWER MONUMENTAL DAM10-21-2021INFLOW (KAF)4514589477
49UMTW1YAKIMA-AT UMTANUM10-21-2021DISCHARGE (KAF)22028078
50PIHI1PORTNEUF-AT POCATELLO10-21-2021DISCHARGE (KAF)374778
51BONM8BLACKFOOT-NEAR BONNER10-21-2021DISCHARGE (KAF)10513379
52KIOW1YAKIMA-AT KIONA10-21-2021DISCHARGE (KAF)58170682
53ANAW1SNAKE-NEAR ANATONE10-21-2021DISCHARGE (KAF)3624444082
54TCHW1WALLA WALLA-NEAR TOUCHET10-21-2021DISCHARGE (KAF)10012282
55PARW1YAKIMA-NEAR PARKER10-21-2021DISCHARGE (KAF)40448583
56BIGI1BOISE-AT GLENWOOD BRIDGE10-21-2021DISCHARGE (KAF)536383
57JKSW4SNAKE-NEAR JACKSON10-21-2021DISCHARGE (KAF)27632984
58ALPW4SNAKE-NEAR ALPINE10-21-2021DISCHARGE (KAF)33639884
59ARAI1SF BOISE-ANDERSON RANCH DAM10-21-2021INFLOW (KAF)597084
60WRMO3MALHEUR-WARM SPRINGS DAM10-21-2021INFLOW (KAF)172084
61MCDW1COLUMBIA-MCNARY DAM10-21-2021INFLOW (KAF)266573165184
62LYDM8KOOTENAI-LIBBY DAM10-21-2021INFLOW (KAF)77892085
63TONW1OKANOGAN-NEAR TONASKET10-21-2021DISCHARGE (KAF)25129585
64ANTI1HENRYS FORK-AT ST. ANTHONY10-21-2021DISCHARGE (KAF)31636985
65PLDI1SF SNAKE-PALISADES DAM10-21-2021INFLOW (KAF)52261085
66JDAO3COLUMBIA-JOHN DAY DAM10-21-2021INFLOW (KAF)278963273285
67BONO3COLUMBIA-BONNEVILLE DAM10-21-2021INFLOW (KAF)294403481785
68ABOM8CLARK FORK-ABOVE MISSOULA10-21-2021DISCHARGE (KAF)28032586
69RIDI1WILLOW CREEK-RIRIE DAM10-21-2021INFLOW (KAF)101186
70TDAO3COLUMBIA-THE DALLES DAM10-21-2021INFLOW (KAF)286253343386
71GCDW1COLUMBIA-GRAND COULEE DAM10-21-2021INFLOW (KAF)185152128287
72WANW1COLUMBIA-WANAPUM DAM10-21-2021INFLOW (KAF)215032459187
73PRWW1COLUMBIA-PRIEST RAPIDS DAM10-21-2021INFLOW (KAF)215032466387
74CIBW1COLUMBIA-AT INTL BOUNDARY10-21-2021DISCHARGE (KAF)177152022688
75WELW1COLUMBIA-WELLS DAM10-21-2021INFLOW (KAF)208912355689
76RRHW1COLUMBIA-ROCKY REACH DAM10-21-2021INFLOW (KAF)212112394889
77CHEI1FALL RIVER-NEAR CHESTER10-21-2021DISCHARGE (KAF)10511889
78TEAI1TETON-NEAR ST. ANTHONY10-21-2021DISCHARGE (KAF)9010189
79CHJW1COLUMBIA-CHIEF JOSEPH DAM10-21-2021INFLOW (KAF)205662295690
80LWRI1LITTLE WOOD-LITTLE WOOD DAM10-21-2021INFLOW (KAF)111390
81DRMM8CLARK FORK-NR DRUMMOND10-21-2021DISCHARGE (KAF)11612593
82EASW1YAKIMA-AT EASTON10-21-2021DISCHARGE (KAF)677293
83REXI1HENRYS FORK-AT REXBURG10-21-2021DISCHARGE (KAF)39642693
84AFRI1SNAKE-AMERICAN FALLS RESERVOIR10-21-2021INFLOW (KAF)1110119593
85EMMI1PAYETTE-NEAR EMMETT10-21-2021DISCHARGE (KAF)25627593
86CFMM8FLATHEAD-AT COLUMBIA FALLS10-21-2021DISCHARGE (KAF)88393495
87PESW1WENATCHEE-AT PESHASTIN10-21-2021DISCHARGE (KAF)30832695
88PARI1BOISE-NEAR PARMA10-21-2021DISCHARGE (KAF)19820995
89WEII1SNAKE-AT WEISER10-21-2021DISCHARGE (KAF)2598272995
90MONO3NF JOHN DAY-AT MONUMENT10-21-2021DISCHARGE (KAF)929795
91DLGM8CLARK FORK-AT DEER LODGE10-21-2021DISCHARGE (KAF)495196
92KEDW1YAKIMA-KEECHELUS LAKE10-21-2021INFLOW (KAF)535596
93SWAI1SNAKE-BELOW SWAN FALLS10-21-2021DISCHARGE (KAF)1788185596
94BRNI1SNAKE-BROWNLEE DAM10-21-2021INFLOW (KAF)2800286898
95RCCM8ROCK CREEK-NEAR CLINTON10-21-2021DISCHARGE (KAF)464699
96SERO3JOHN DAY-AT SERVICE CK10-21-2021DISCHARGE (KAF)17517799
97BUDW1BUMPING-BUMPING LAKE DAM10-21-2021INFLOW (KAF)3939100
98GIBO3UMATILLA-NEAR GIBBON10-21-2021DISCHARGE (KAF)3534101
99UNDW1WHITE SALMON-NEAR UNDERWOOD10-21-2021DISCHARGE (KAF)233230101
100PITW1KLICKITAT-NEAR PITT10-21-2021DISCHARGE (KAF)289284102
101ARDW1ENTIAT-NEAR ARDENVOIR10-21-2021DISCHARGE (KAF)2625104
102KADW1KACHESS-KACHESS DAM10-21-2021INFLOW (KAF)5250104
103MODO3DESCHUTES-AT MOODY NR BIGGS10-21-2021DISCHARGE (KAF)13851332104
104CSDI1NF PAYETTE-CASCADE DAM10-21-2021INFLOW (KAF)9287106
105CLUW1CLE ELUM-CLE ELUM LAKE10-21-2021INFLOW (KAF)134117114
106CHDW1CHELAN-LAKE CHELAN DAM10-21-2021INFLOW (KAF)225192117
107HODO3HOOD-NEAR TUCKER BRIDGE10-21-2021DISCHARGE (KAF)250212118
108PDTO3UMATILLA-AT PENDLETON10-21-2021DISCHARGE (KAF)9680121
109MYKO3MCKAY CREEK-NEAR PILOT ROCK10-21-2021DISCHARGE (KAF)2518135
110UMAO3UMATILLA-NEAR UMATILLA10-21-2021DISCHARGE (KAF)14289159
111BULO3BULLY CREEK-BULLY CREEK DAM10-21-2021INFLOW (KAF)162908
112BFEI1KOOTENAI-AT BONNERS FERRY10-21-2021STAGE (FT)MMM
113HOPI1PEND OREILLE-PEND OREILLE LAKE NR HOPE10-21-2021LAKE ELEVATION (FT)MMM
114SJMI1ST JOE-AT ST MARIES10-21-2021STAGE (FT)MMM
115MILI1SNAKE-AT MILNER10-21-2021DISCHARGE (KAF)M55M